WESTFORD NEEDLES, 21660

Orbit data source: Space-Track

WESTFORD NEEDLES, 21660 is space debris in LEO originally from a launch on Thu, 09 May 1963 UTC launched from the Air Force Western Test Range (AFWTR). Debris objects in space refer to the collection of defunct objects orbiting the Earth. Examples of debris include non-operational satellites, rocket bodies, and fragments generated from explosions, collisions, or faulty payload assembly.

Loading next visibility...
Identifier
21660, 1963-014FG
Orbit
LEO
Country
Flag of USUS
Related business
Manufacturer
Unknown
Mission
Spacecraft
Bus & Motor
Unknown
Mass
Unknown
Launch date (UTC)
1963-05-09 (63 years ago)
Launch vehicle
Unknown
Launch site
Air Force Western Test Range (AFWTR)
Object type
Payload
Rocket body
Debris
Shape & HBR
Unknown shape, 0.2 m
Radar Cross Section
Medium (>0.1 m² and <1 m²)

Expand to show TLE details & history
Last TLE update: 4 days ago

TLE from 4 days ago
0 WESTFORD NEEDLES
1 21660U 63014FG  26234.02531104 -.00000015  00000-0 -22211-2 0  9990
2 21660  86.7466 252.8431 1390589 294.9360  72.8120  8.77259631 71474
Epoch: 2026-08-22T00:36Z
TLE epoch observation values (Epoch: 2026-08-22T00:36:26.873Z)
Latitude
23.5608°
Longitude
-85.19587°
Altitude
3,331.152 km
Speed
6.481 km/s
True Right ascension
16h 57m 01s
True Declination
23° 28' 06"
Sunlit
Object was in daylight at epoch
Visualization orbit readout
Latitude
Unknown
Longitude
Unknown
Altitude
Unknown
Speed
Unknown
Apparent Right ascension
Unknown
Apparent Declination
Unknown
Sunlit
N/A
Visualization observer readout
Local Sidereal Time
16:22:01
Azimuth
Unknown
Elevation
Unknown
Doppler factor
Unknown
Orbital elements
Apogee altitude
4,931.031 km
Perigee altitude
2,169.733 km
Semi-major axis
9,928.519 km
Eccentricity
0.13906
Inclination
86.7466°
RAAN
252.8431°
Arg. of periapsis
294.936°
True anomaly
88.6523°
Mean anomaly
72.812°
Eccentric anomaly
80.67418°
Mean motion
2.1939 °/min
Orbital period
164.09 mins
BSTAR
-0.0022211
Loading maneuver chart data...
Computing Atmospheric mass density...

Documentation

Showing up to 5 results
|